When you browse on this site, cookies collect data to enhance your experience and personalize the content and advertising you see.
Visit our Privacy Policy to learn more. By continuing to use the site, you agree to this use of cookies and data.
  • în România
  • Lista ţărilor
  • Pe 7 zile
  • Temperatura apei
  • Hartă satelitară
  • Meteo pe hartă
  • Widget-uri
  • user-avatar
    Intrare

    Meteo pe oră la Houston

    Astăzi, 12 Decembrie, Miercuri

    Timp Temperatura Precipitaţii Vânt Presiune Umiditate
    00:00 +13°C° 0 mm 3 m/s 766 mmHg 69%
    01:00 +13°C° 0 mm 3 m/s 765 mmHg 70%
    02:00 +13°C° 0 mm 3 m/s 765 mmHg 72%
    03:00 +13°C° 0 mm 3 m/s 764 mmHg 73%
    04:00 +13°C° 0 mm 3 m/s 764 mmHg 74%
    05:00 +13°C° 0 mm 3 m/s 764 mmHg 74%
    06:00 +15°C° 0 mm 2 m/s 764 mmHg 75%
    07:00 +14°C° 0 mm 3 m/s 764 mmHg 76%
    08:00 +16°C° 0 mm 3 m/s 764 mmHg 76%
    09:00 +16°C° 0 mm 3 m/s 764 mmHg 76%
    10:00 +18°C° 0 mm 4 m/s 763 mmHg 75%
    11:00 +19°C° 0 mm 4 m/s 763 mmHg 73%
    12:00 +20°C° 0 mm 5 m/s 762 mmHg 72%
    13:00 +20°C° 0 mm 5 m/s 762 mmHg 73%
    14:00 +20°C° 0 mm 5 m/s 761 mmHg 74%
    15:00 +20°C° 0 mm 4 m/s 760 mmHg 75%
    16:00 +20°C° 0 mm 4 m/s 760 mmHg 77%
    17:00 +19°C° 0 mm 4 m/s 759 mmHg 80%
    18:00 +19°C° 0 mm 4 m/s 759 mmHg 82%
    19:00 +19°C° 0 mm 4 m/s 759 mmHg 83%
    20:00 +19°C° 0 mm 4 m/s 759 mmHg 84%
    21:00 +19°C° 0 mm 4 m/s 759 mmHg 85%
    22:00 +19°C° 1.5 mm 4 m/s 759 mmHg 87%
    23:00 +19°C° 1.5 mm 4 m/s 758 mmHg 89%

    Mâine, 13 Decembrie, Joi

    Timp Temperatura Precipitaţii Vânt Presiune Umiditate
    00:00 +19°C° 1.5 mm 5 m/s 758 mmHg 91%
    01:00 +19°C° 5.6 mm 5 m/s 757 mmHg 92%
    02:00 +19°C° 5.6 mm 5 m/s 757 mmHg 92%
    03:00 +19°C° 5.6 mm 5 m/s 756 mmHg 93%
    04:00 +19°C° 2.3 mm 5 m/s 755 mmHg 92%
    05:00 +19°C° 2.3 mm 5 m/s 755 mmHg 90%
    06:00 +19°C° 2.3 mm 4 m/s 755 mmHg 89%
    07:00 +20°C° 0.3 mm 4 m/s 755 mmHg 88%
    08:00 +20°C° 0.3 mm 5 m/s 755 mmHg 87%
    09:00 +20°C° 0.3 mm 5 m/s 755 mmHg 85%
    10:00 +21°C° 0 mm 5 m/s 755 mmHg 76%
    11:00 +21°C° 0 mm 6 m/s 755 mmHg 66%
    12:00 +22°C° 0 mm 7 m/s 755 mmHg 57%
    13:00 +21°C° 0 mm 7 m/s 754 mmHg 52%
    14:00 +20°C° 0 mm 8 m/s 754 mmHg 46%
    15:00 +18°C° 0 mm 8 m/s 754 mmHg 41%
    16:00 +16°C° 0 mm 8 m/s 755 mmHg 46%
    17:00 +13°C° 0 mm 8 m/s 755 mmHg 50%
    18:00 +12°C° 0 mm 8 m/s 756 mmHg 55%
    19:00 +11°C° 0 mm 8 m/s 756 mmHg 56%
    20:00 +10°C° 0 mm 8 m/s 757 mmHg 56%
    21:00 +9°C° 0 mm 8 m/s 757 mmHg 57%
    22:00 +7°C° 0 mm 8 m/s 757 mmHg 58%
    23:00 +7°C° 0 mm 8 m/s 757 mmHg 59%

    Poimâine, 14 Decembrie, Vineri

    Timp Temperatura Precipitaţii Vânt Presiune Umiditate
    00:00 +7°C° 0 mm 8 m/s 756 mmHg 61%
    01:00 +6°C° 0 mm 9 m/s 756 mmHg 61%
    02:00 +6°C° 0 mm 9 m/s 756 mmHg 62%
    03:00 +6°C° 0 mm 10 m/s 756 mmHg 62%
    04:00 +5°C° 0 mm 10 m/s 756 mmHg 63%
    05:00 +5°C° 0 mm 10 m/s 756 mmHg 64%
    06:00 +5°C° 0 mm 10 m/s 756 mmHg 65%
    07:00 +5°C° 0 mm 10 m/s 757 mmHg 65%
    08:00 +5°C° 0 mm 10 m/s 758 mmHg 66%
    09:00 +5°C° 0 mm 10 m/s 758 mmHg 66%
    10:00 +6°C° 0 mm 10 m/s 759 mmHg 65%
    11:00 +6°C° 0 mm 10 m/s 759 mmHg 64%
    12:00 +7°C° 0 mm 9 m/s 760 mmHg 63%
    13:00 +7°C° 0 mm 9 m/s 759 mmHg 62%
    14:00 +7°C° 0 mm 9 m/s 759 mmHg 61%
    15:00 +8°C° 0 mm 9 m/s 759 mmHg 61%
    16:00 +7°C° 0 mm 8 m/s 760 mmHg 61%
    17:00 +7°C° 0 mm 8 m/s 761 mmHg 61%
    18:00 +8°C° 0 mm 7 m/s 761 mmHg 61%
    19:00 +7°C° 0 mm 6 m/s 762 mmHg 60%
    20:00 +7°C° 0 mm 6 m/s 762 mmHg 58%
    21:00 +7°C° 0 mm 6 m/s 763 mmHg 57%
    22:00 +7°C° 0 mm 6 m/s 763 mmHg 55%
    23:00 +7°C° 0 mm 5 m/s 763 mmHg 54%

    15 Decembrie, Sâmbătă

    Timp Temperatura Precipitaţii Vânt Presiune Umiditate
    00:00 +6°C° 0 mm 5 m/s 763 mmHg 53%
    01:00 +6°C° 0 mm 5 m/s 763 mmHg 53%
    02:00 +6°C° 0 mm 5 m/s 763 mmHg 53%
    03:00 +6°C° 0 mm 5 m/s 763 mmHg 53%
    04:00 +5°C° 0 mm 5 m/s 764 mmHg 54%
    05:00 +5°C° 0 mm 4 m/s 764 mmHg 55%
    06:00 +5°C° 0 mm 4 m/s 764 mmHg 56%
    07:00 +5°C° 0 mm 4 m/s 765 mmHg 56%
    08:00 +6°C° 0 mm 4 m/s 765 mmHg 55%
    09:00 +6°C° 0 mm 4 m/s 766 mmHg 55%
    10:00 +8°C° 0 mm 4 m/s 766 mmHg 54%
    11:00 +10°C° 0 mm 4 m/s 766 mmHg 53%
    12:00 +12°C° 0 mm 4 m/s 766 mmHg 51%
    13:00 +13°C° 0 mm 4 m/s 765 mmHg 51%
    14:00 +14°C° 0 mm 4 m/s 765 mmHg 51%
    15:00 +16°C° 0 mm 3 m/s 764 mmHg 50%
    16:00 +13°C° 0 mm 3 m/s 765 mmHg 53%
    17:00 +12°C° 0 mm 3 m/s 765 mmHg 57%
    18:00 +12°C° 0 mm 2 m/s 766 mmHg 60%
    19:00 +12°C° 0 mm 2 m/s 766 mmHg 60%
    20:00 +10°C° 0 mm 2 m/s 766 mmHg 61%
    21:00 +10°C° 0 mm 2 m/s 766 mmHg 61%
    22:00 +9°C° 0 mm 2 m/s 767 mmHg 61%
    23:00 +10°C° 0 mm 1 m/s 767 mmHg 61%

    16 Decembrie, Duminică

    Timp Temperatura Precipitaţii Vânt Presiune Umiditate
    00:00 +10°C° 0 mm 1 m/s 767 mmHg 61%
    01:00 +9°C° 0 mm 1 m/s 767 mmHg 61%
    02:00 +9°C° 0 mm 1 m/s 767 mmHg 61%
    03:00 +9°C° 0 mm 1 m/s 767 mmHg 62%
    04:00 +9°C° 0 mm 1 m/s 767 mmHg 61%
    05:00 +8°C° 0 mm 1 m/s 767 mmHg 61%
    06:00 +8°C° 0 mm 1 m/s 768 mmHg 61%
    07:00 +9°C° 0 mm 1 m/s 768 mmHg 59%
    08:00 +10°C° 0 mm 1 m/s 768 mmHg 57%
    09:00 +11°C° 0 mm 1 m/s 769 mmHg 55%
    10:00 +13°C° 0 mm 1 m/s 769 mmHg 51%
    11:00 +15°C° 0 mm 1 m/s 769 mmHg 47%
    12:00 +15°C° 0 mm 0 m/s 768 mmHg 42%
    13:00 +16°C° 0 mm 0 m/s 768 mmHg 40%
    14:00 +17°C° 0 mm 0 m/s 767 mmHg 38%
    15:00 +17°C° 0 mm 0 m/s 767 mmHg 36%
    16:00 +16°C° 0 mm 0 m/s 767 mmHg 40%
    17:00 +15°C° 0 mm 0 m/s 767 mmHg 43%
    18:00 +13°C° 0 mm 0 m/s 767 mmHg 47%
    19:00 +13°C° 0 mm 0 m/s 768 mmHg 49%
    20:00 +12°C° 0 mm 0 m/s 768 mmHg 50%
    21:00 +12°C° 0 mm 0 m/s 768 mmHg 52%
    22:00 +12°C° 0 mm 0 m/s 768 mmHg 54%
    23:00 +11°C° 0 mm 0 m/s 768 mmHg 55%

    17 Decembrie, Luni

    Timp Temperatura Precipitaţii Vânt Presiune Umiditate
    00:00 +11°C° 0 mm 0 m/s 768 mmHg 56%
    01:00 +11°C° 0 mm 0 m/s 767 mmHg 57%
    02:00 +10°C° 0 mm 0 m/s 767 mmHg 58%
    03:00 +11°C° 0 mm 1 m/s 767 mmHg 59%
    04:00 +11°C° 0 mm 1 m/s 767 mmHg 59%
    05:00 +11°C° 0 mm 1 m/s 767 mmHg 59%
    06:00 +10°C° 0 mm 1 m/s 767 mmHg 60%
    07:00 +11°C° 0 mm 1 m/s 768 mmHg 59%
    08:00 +12°C° 0 mm 1 m/s 768 mmHg 58%
    09:00 +13°C° 0 mm 1 m/s 768 mmHg 57%
    10:00 +14°C° 0 mm 1 m/s 768 mmHg 54%
    11:00 +15°C° 0 mm 1 m/s 768 mmHg 52%
    12:00 +16°C° 0 mm 1 m/s 767 mmHg 49%
    13:00 +18°C° 0 mm 1 m/s 767 mmHg 49%
    14:00 +18°C° 0 mm 1 m/s 766 mmHg 49%
    15:00 +19°C° 0 mm 1 m/s 766 mmHg 48%
    16:00 +16°C° 0 mm 1 m/s 766 mmHg 53%
    17:00 +15°C° 0 mm 1 m/s 766 mmHg 57%
    18:00 +14°C° 0 mm 1 m/s 767 mmHg 61%
    19:00 +14°C° 0 mm 1 m/s 767 mmHg 63%
    20:00 +14°C° 0 mm 2 m/s 767 mmHg 66%
    21:00 +13°C° 0 mm 2 m/s 767 mmHg 68%
    22:00 +13°C° 0 mm 2 m/s 767 mmHg 69%
    23:00 +13°C° 0 mm 2 m/s 767 mmHg 70%
    Arată mai mult